Location: Unspecified
(17.6330°N, 0.0000°E)
Time: 08:50:20
(UTC+00:00)

S-56A Canister/Altair - Pass Details

Date: 27 June 2019
Orbit: 632 x 2500 km, 38.9° (Epoch: 23 July)

Event Time Altitude Azimuth Distance (km) Brightness Sun altitude
Rises 17:00:03 0° 303° (WNW) 4,919 13.0 21.0°
Reaches altitude 10° 17:05:51 10° 327° (NNW) 3,453 11.8 19.6°
Maximum altitude 17:09:49 14° 355° (N) 2,829 10.8 18.8°
Drops below altitude 10° 17:13:11 10° 25° (NNE) 2,826 10.4 18.0°
Sets 17:17:02 0° 52° (NE) 3,461 10.6 17.1°
